Regional Weather Roundup
Issued by NWS Cleveland, OH

Home | Current Version | Previous Version | Graphics & Text | Print | Product List | Glossary On
Versions: 1 2 3 4 5 6 7 8 9 10 11 12 13 14 15 16 17 18 19 20 21 22 23 24 25 26 27 28 29 30 31 32 33 34 35 36 37 38 39 40 41 42 43 44 45 46 47 48 49 50
000
ASUS41 KCLE 170110
RWRCLE
OHIO REGIONAL WEATHER ROUNDUP
NATIONAL WEATHER SERVICE WILMINGTON, OH
900 PM EDT TUE SEP 16 2014

NOTE: "FAIR" INDICATES FEW OR NO CLOUDS BELOW 12,000 FEET WITH NO
SIGNIFICANT WEATHER AND/OR OBSTRUCTIONS TO VISIBILITY.

OHZ001>008-015>018-024>027-034-035-043-044-170200-
   NORTHWEST OHIO

CITY           SKY/WX    TMP DP  RH WIND       PRES   REMARKS
DEFIANCE       CLEAR     53  48  83 CALM      30.09S
FINDLAY        CLEAR     54  47  77 S3        30.09S
TOLEDO EXPRESS CLEAR     50  48  93 CALM      30.08S
TOLEDO METCALF CLEAR     58  45  62 SW3       30.09S
LIMA           CLEAR     53  47  79 SW3       30.10S
$$

OHZ009>014-019>023-028>033-038-089-170200-
   NORTHEAST OHIO

CITY           SKY/WX    TMP DP  RH WIND       PRES   REMARKS
CLE-HOPKINS    CLEAR     55  48  77 SW3       30.11R
CLE-LAKEFRONT  CLEAR     60  47  61 W7        30.08S
CUY CO. ARPT   CLEAR     54  52  94 CALM      30.09S
LORAIN-ELYRIA  CLEAR     55  48  77 CALM      30.10S
ASHTABULA      CLEAR     50  48  93 CALM      30.10R
AKRON-CANTON   PTCLDY    57  48  72 N8        30.09R
WOOSTER        CLEAR     55  49  80 N6        30.10R
MANSFIELD      CLEAR     53  48  83 N3        30.10R
YOUNGSTOWN     PTCLDY    54  48  80 CALM      30.09R
$$

OHZ042-051>053-060>062-070>072-077>081-170200-
  SOUTHWEST OHIO

CITY           SKY/WX    TMP DP  RH WIND       PRES   REMARKS
CINC-COVINGTON CLOUDY    59  51  75 CALM      30.11S
CINC-LUNKEN    CLOUDY    58  56  93 CALM      30.12R
HAMILTON       CLOUDY    59  53  80 CALM      30.12S
DAYTON         CLOUDY    59  49  69 N5        30.12S
WRIGHT-PAT AFB CLOUDY    56  48  75 CALM      30.11S
DAYTON GENERAL CLOUDY    58  51  78 CALM      30.11R
WILMINGTON     CLOUDY    58  47  66 CALM      30.11S
$$

OHZ036-037-039>041-045>050-054>059-063>069-073>076-082>088-170200-
  CENTRAL AND SOUTHEAST OHIO

CITY           SKY/WX    TMP DP  RH WIND       PRES   REMARKS
COLUMBUS       CLEAR     60  49  66 SW5       30.09S
OSU AIRPORT    PTCLDY    56  49  77 W3        30.10R
BOLTON FIELD   CLOUDY    53  50  91 SW3       30.11R
RICKENBACK AFB CLEAR     56  49  79 W7        30.09S
NEWARK         CLEAR     53  50  89 CALM      30.10R
MARION         CLEAR     55  47  74 W5        30.10S
LANCASTER      CLEAR     52  49  89 N3        30.10R
ZANESVILLE     CLEAR     57  48  72 NW5       30.09R
NEW PHILLY     MOCLDY    55  52  89 CALM      30.09R
$$


USA.gov is the U.S. government's official web portal to all federal, state and local government web resources and services.